Weather History for Deer Park, WA

Change the Weather History Date:

Saturday, January 18, 2014

  Actual Average Record
Temperature  
Mean Temperature 29 °F 28 °F  
Max Temperature 30 °F 34 °F 37 °F (2005)
Min Temperature 27 °F 22 °F 3 °F (2013)
Degree Days  
Heating Degree Days 36 37  
Month to date heating degree days 612 694  
Since 1 July heating degree days 3823 3921  
Cooling Degree Days 0 0  
Month to date cooling degree days 0 0  
Year to date cooling degree days 0 0  
Moisture  
Dew Point 26 °F    
Average Humidity 93    
Maximum Humidity 100    
Minimum Humidity 85    
Precipitation  
Precipitation 0.00 in 0.08 in 0.26 in (2012)
Month to date precipitation 1.04 1.74  
Year to date precipitation 1.04 1.74  
Sea Level Pressure  
Sea Level Pressure 30.34 in    
Wind  
Wind Speed 3 mph (NNW)    
Max Wind Speed 7 mph    
Max Gust Speed 9 mph    
Visibility 5 miles    
Events Fog    
T = Trace of Precipitation, MM = Missing Value Source: NWS Daily Summary

Daily Weather History Graph

Daily Weather History Graph

Search for Another Location

Airport:

Trip Planner

Search our weather history database for the weather conditions in past years. The results will help you decide how hot, cold, wet, or windy it might be!

Date:

Astronomy

Jan. 18, 2014 Rise Set
Actual Time 7:32 AM PST 4:28 PM PST
Civil Twilight 6:57 AM PST 5:03 PM PST
Nautical Twilight 6:19 AM PST 5:41 PM PST
Astronomical Twilight 5:42 AM PST 6:18 PM PST
Moon 7:30 PM PST (1/18) 8:20 AM PST (1/18)
Length of Visible Light 10h 05m
Length of Day
8h 56m
Waning Gibbous, 94% of the Moon is Illuminated
Jan 18
Waning Gibbous
Jan 23
Last Quarter
Jan 30
New
Feb 6
First Quarter
Feb 14
Full

Hourly Weather History & Observations

Time (PST) Temp. Windchill Dew Point Humidity Pressure Visibility Wind Dir Wind Speed Gust Speed Precip Events Conditions
12:03 AM 28.0 °F 24.2 °F 25.0 °F 88% 30.36 in 2.0 mi North 3.5 mph - N/A   Overcast
12:16 AM 27.0 °F 21.6 °F 25.0 °F 92% 30.36 in 1.5 mi NE 4.6 mph - N/A   Overcast
12:44 AM 28.0 °F - 25.0 °F 88% 30.36 in 2.5 mi Calm Calm - N/A   Overcast
12:53 AM 27.0 °F 23.0 °F 25.0 °F 92% 30.44 in 2.5 mi North 3.5 mph - N/A   Overcast
1:07 AM 27.0 °F - 25.0 °F 92% 30.36 in 1.0 mi Calm Calm - N/A   Overcast
1:14 AM 27.0 °F - 25.0 °F 92% 30.36 in 0.8 mi Calm Calm - N/A   Mist
1:53 AM 28.0 °F - 25.0 °F 88% 30.44 in 0.8 mi Calm Calm - N/A   Mist
2:06 AM 28.0 °F 24.2 °F 25.0 °F 88% 30.36 in 1.2 mi NNE 3.5 mph - N/A   Overcast
2:45 AM 28.0 °F 24.2 °F 25.0 °F 88% 30.36 in 3.0 mi North 3.5 mph - N/A   Overcast
2:53 AM 28.0 °F 22.8 °F 25.0 °F 88% 30.44 in 3.0 mi North 4.6 mph - N/A   Overcast
3:00 AM 28.0 °F 21.7 °F 25.0 °F 88% 30.36 in 1.8 mi North 5.8 mph - N/A   Overcast
3:15 AM 28.0 °F 24.2 °F 26.1 °F 92% 30.36 in 3.0 mi North 3.5 mph - N/A   Overcast
3:53 AM 28.0 °F 24.2 °F 25.0 °F 88% 30.43 in 6.0 mi North 3.5 mph - N/A   Overcast
4:53 AM 28.0 °F 22.8 °F 25.0 °F 88% 30.43 in 8.0 mi North 4.6 mph - N/A   Overcast
5:53 AM 28.0 °F 24.2 °F 25.0 °F 88% 30.43 in 10.0 mi NNW 3.5 mph - N/A   Overcast
6:53 AM 27.0 °F 19.5 °F 24.1 °F 89% 30.43 in 10.0 mi NNW 6.9 mph - N/A   Overcast
7:53 AM 27.0 °F 21.6 °F 24.1 °F 89% 30.44 in 9.0 mi NNW 4.6 mph - N/A   Overcast
8:53 AM 27.0 °F 23.0 °F 25.0 °F 92% 30.45 in 10.0 mi NNW 3.5 mph - N/A   Overcast
9:53 AM 28.0 °F 22.8 °F 25.0 °F 88% 30.45 in 10.0 mi NNW 4.6 mph - N/A   Overcast
10:53 AM 28.0 °F - 26.1 °F 92% 30.43 in 10.0 mi Calm Calm - N/A   Overcast
11:53 AM 28.0 °F 24.2 °F 26.1 °F 92% 30.42 in 10.0 mi West 3.5 mph - N/A   Overcast
12:53 PM 28.9 °F - 27.0 °F 92% 30.37 in 10.0 mi Calm Calm - N/A   Overcast
1:37 PM 30.0 °F 26.5 °F 27.0 °F 88% 30.28 in 10.0 mi Variable 3.5 mph - N/A   Overcast
1:53 PM 28.9 °F - 27.0 °F 92% 30.35 in 10.0 mi North - - N/A   Overcast
2:53 PM 28.9 °F - 27.0 °F 92% 30.34 in 10.0 mi Calm Calm - N/A   Overcast
3:04 PM 28.9 °F - 27.0 °F 92% 30.26 in 10.0 mi Calm Calm - N/A   Overcast
3:53 PM 28.9 °F - 27.0 °F 92% 30.33 in 10.0 mi Calm Calm - N/A   Overcast
4:53 PM 28.9 °F 25.2 °F 27.0 °F 92% 30.33 in 10.0 mi East 3.5 mph - N/A   Overcast
5:53 PM 28.9 °F 25.2 °F 27.0 °F 92% 30.32 in 7.0 mi NNW 3.5 mph - N/A   Overcast
6:13 PM 28.0 °F - 27.0 °F 96% 30.24 in 1.8 mi Calm Calm - N/A   Overcast
6:34 PM 28.0 °F - 27.0 °F 96% 30.23 in 0.8 mi Calm Calm - N/A   Mist
6:53 PM 28.0 °F 22.8 °F 27.0 °F 96% 30.30 in 0.5 mi SSW 4.6 mph - N/A Fog Light Freezing Fog
7:53 PM 28.0 °F 24.2 °F 27.0 °F 96% 30.30 in 0.2 mi WSW 3.5 mph - N/A Fog Light Freezing Fog
8:53 PM 27.0 °F 21.6 °F 26.1 °F 96% 30.29 in 0.5 mi SE 4.6 mph - N/A Fog Light Freezing Fog
9:53 PM 27.0 °F - 25.0 °F 92% 30.29 in 0.5 mi Calm Calm - N/A Fog Light Freezing Fog
10:38 PM 27.0 °F 23.0 °F 26.1 °F 96% 30.22 in 1.5 mi SSW 3.5 mph - N/A   Overcast
10:45 PM 27.0 °F 23.0 °F 26.1 °F 96% 30.22 in 3.0 mi SSW 3.5 mph - N/A   Overcast
10:53 PM 27.0 °F 23.0 °F 25.0 °F 92% 30.29 in 4.0 mi SSE 3.5 mph - N/A   Overcast
11:25 PM 27.0 °F 21.6 °F 25.0 °F 92% 30.20 in 2.0 mi South 4.6 mph - N/A   Overcast
11:36 PM 27.0 °F 23.0 °F 26.1 °F 96% 30.19 in 3.0 mi South 3.5 mph - N/A   Overcast
11:53 PM 27.0 °F - 25.0 °F 92% 30.26 in 4.0 mi Calm Calm - N/A   Overcast